Regional Weather Roundup
Issued by NWS

Home | Current Version | Previous Version | Text Only | Print | Product List | Glossary Off
Versions: 1 2 3 4 5 6 7 8 9 10 11 12 13 14 15 16 17 18 19 20 21 22 23 24 25 26 27 28 29 30 31 32 33 34 35 36 37 38 39 40 41 42 43 44 45 46 47 48 49 50

000
ASUS43 KMPX 221210
RWRMN
WEATHER ROUNDUP FOR MINNESOTA
NATIONAL WEATHER SERVICE TWIN CITIES/CHANHASSEN MN
600 AM CST THU FEB 22 2018


NOTE: "FAIR" INDICATES FEW OR NO CLOUDS BELOW 12,000 FEET WITH NO
SIGNIFICANT WEATHER AND/OR OBSTRUCTIONS TO VISIBILITY. N/A MEANS
CURRENT SKY AND/OR WEATHER CONDITIONS ARE NOT AVAILABLE.

MNZ060>063-068>070-221300-
   Twin Cities Metro

CITY           SKY/WX    TMP DP  RH WIND       PRES   REMARKS
TWIN CITIES    CLOUDY    11   6  81 E3        30.61R
6HR MIN TEMP:   7; 6HR MAX TEMP:  12;

ST PAUL        FAIR       8   6  92 SE3       30.63S
CRYSTAL        FAIR       6   2  83 S3        30.59S
BLAINE         FAIR       9   5  85 E5        30.58F WCI   0
LAKEVILLE      FAIR       5   3  92 E6        30.59S WCI  -6
EDEN PRAIRIE   FAIR      10   4  76 NE6       30.57F WCI   0
6HR MIN TEMP:   4; 6HR MAX TEMP:  10;

SOUTH ST PAUL  FAIR      10   6  85 SE3       30.61R
LAKE ELMO      FAIR       7   3  85 CALM      30.61S
$$
MNZ001>005-007-008-013>017-022>024-027-028-221300-
   Northwest Minnesota

CITY           SKY/WX    TMP DP  RH WIND       PRES   REMARKS
BEMIDJI        FAIR     -12 -15  84 E3        30.48S
HALLOCK        FAIR      -4  -9  77 SE12      30.44S WCI -22
ROSEAU         FAIR      -4  -9  77 S9        30.45F WCI -20
WARROAD        FAIR      -4  -8  84 SE3       30.46F
THIEF RVR FALL FAIR      -6 -10  83 SE9       30.46F WCI -23
CROOKSTON      FAIR      -2  -8  78 SE8       30.47F WCI -17
FOSSTON        FAIR       1  -6  71 SE7       30.45F WCI -11
DETROIT LAKES  FAIR       3   0  85 SE6       30.47S WCI  -8
MOORHEAD       FAIR       3  -2  78 S10       30.47R WCI -12
PARK RAPIDS    FAIR      -4  -9  79 SE8       30.49S WCI -19
MAHNOMEN       FAIR       4  -2  74 SE13      30.44F WCI -12
$$
MNZ006-009>011-018-025>026-221300-
   North Central Minnesota

CITY           SKY/WX    TMP DP  RH WIND       PRES   REMARKS
BAUDETTE       FAIR      -9 -13  83 E6        30.46F WCI -22
FLAG ISLAND    FAIR     -13 -18  77 SE8       30.47R WCI -30
INTL FALLS     FAIR     -18 -23  77 SE5       30.52R WCI -31
6HR MIN TEMP: -21; 6HR MAX TEMP:  -1;

WASKISH        FAIR      -2  -6  84 SE6       30.48F WCI -14
BIG FORK       FAIR     -13 -18  77 CALM      30.51F
LONGVILLE      FAIR     -13 -18  77 CALM      30.52F
GRAND RAPIDS   FAIR      -8 -12  83 CALM      30.55S
CRANE LAKE     FAIR     -20 -26  76 CALM      30.59R
ORR            FAIR      -2  -8  78 CALM      30.51R
COOK             N/A    -17 -20  83 CALM      30.54S
WALKER         FAIR      -5  -9  84 E5        30.49F WCI -16
$$
MNZ012-019>021-037-221300-
   Northeast Minnesota

CITY           SKY/WX    TMP DP  RH WIND       PRES   REMARKS
DULUTH         FAIR      -2  -8  76 CALM      30.56R
6HR MIN TEMP:  -7; 6HR MAX TEMP:   8;

ELY            FAIR     -15 -18  84 CALM      30.56R
HIBBING        FAIR     -16 -21  78 CALM      30.54S
EVELETH        FAIR     N/A N/A N/A CALM      30.57R
DULUTH HARBOR  FAIR       1  -2  85 SW5       30.65R WCI  -8
TWO HARBORS    FAIR       0  -6  78 W3        30.57R
GRAND MARAIS     N/A     14   0  53 VRB3      30.63R
G MARAIS ARPRT FAIR      -2  -9  71 CALM      30.53R
$$
MNZ029>031-032-039>041-046>048-054>057-064-221300-
   West Central Minnesota

CITY           SKY/WX    TMP DP  RH WIND       PRES   REMARKS
FERGUS FALLS   FAIR       9   1  72 SE14      30.48F WCI  -8
WHEATON        FAIR       3  -2  78 S5        30.51R WCI  -6
MORRIS         FAIR       1  -2  85 SE9       30.49F WCI -14
ALEXANDRIA     FAIR       2  -2  83 SE7       30.51S WCI -11
ELBOW LAKE     FAIR       6  -1  74 SE10      30.48F WCI  -9
WADENA         FAIR     -11 -17  77 CALM      30.51S
GLENWOOD       FAIR       0  -4  85 SE9       30.53S WCI -16
APPLETON       FAIR       3   0  85 SE5       30.53R WCI  -6
BENSON         FAIR       3   0  85 S5        30.53S WCI  -6
ORTONVILLE     FAIR       0  -6  78 S6        30.50R WCI -12
MADISON        FAIR       3   0  85 SE8       30.51F WCI -10
WILLMAR        FAIR       1  -2  85 E6        30.56F WCI -10
$$
MNZ033>034-036-042>043-049>051-058-059-221300-
   Central Minnesota

CITY           SKY/WX    TMP DP  RH WIND       PRES   REMARKS
ST CLOUD       MOCLDY    -6  -8  91 CALM      30.56F
6HR MIN TEMP:  -9; 6HR MAX TEMP:  -3;

SAUK CENTRE    FAIR      -8 -12  84 CALM      30.55S
PAYNESVILLE    FAIR      -6  -9  85 CALM      30.57S
AITKIN         FAIR      -9 -15  77 CALM      30.55S
PINE RIVER     FAIR     -11 -17  77 CALM      30.56S
BRAINERD       FAIR      -8 -14  74 CALM      30.55S
STAPLES        FAIR     -11 -17  77 CALM      30.53S
LONG PRAIRIE   FAIR      -6  -9  84 CALM      30.54R
LITTLE FALLS   FAIR      -6 -13  71 CALM      30.57S
LITCHFIELD     FAIR       0  -4  85 CALM      30.56F
BUFFALO        FAIR       1  -3  81 CALM      30.59R
MAPLE LAKE     FAIR      -1  -4  87 CALM      30.58S
HUTCHINSON     FAIR       3   0  84 CALM      30.58S
$$
MNZ037-044-045-052-053-221300-
   East Central Minnesota

CITY           SKY/WX    TMP DP  RH WIND       PRES   REMARKS
PRINCETON      FAIR      -4  -8  84 CALM      30.57F
CAMBRIDGE        N/A     -2 -11  65 CALM      30.58F
RUSH CITY      FAIR      -6 -10  82 CALM      30.60F
MOOSE LAKE     FAIR     -13 -18  77 CALM      30.58S
HINCKLEY       PTSUNNY  -11 -15  84 CALM      30.60S
CLOQUET        FAIR      -4  -9  77 CALM      30.57R
MCGREGOR       FAIR      -2  -6  84 S3        30.58R
$$
MNZ071>073-080-081-089-090-097-098-221300-
   Southwest Minnesota

CITY           SKY/WX    TMP DP  RH WIND       PRES   REMARKS
MONTEVIDEO     FAIR       1   0  92 S6        30.53S WCI -10
GRANITE FALLS  FAIR       3   0  85 E7        30.54F WCI  -9
CANBY          FAIR      -1  -4  87 CALM      30.51F
MARSHALL       FAIR       6   2  83 SE3       30.51F
REDWOOD FALLS  FAIR       4   0  83 E6        30.54F WCI  -7
OLIVIA         FAIR       9   1  72 CALM      30.54F
PIPESTONE      CLOUDY    14  10  85 SE9       30.43F WCI   2
WORTHINGTON    LGT SNOW  14  10  84 NE8       30.47F FOG     WCI   3
JACKSON        LGT SNOW  14  10  85 NE6       30.48F WCI   5
TRACY          FAIR       9   5  83 SE6       30.49F WCI  -1
SLAYTON        CLOUDY    11   7  87 E5        30.47F WCI   2
$$
MNZ065>067-074>077-082>085-091>093-221300-
   South Central Minnesota

CITY           SKY/WX    TMP DP  RH WIND       PRES   REMARKS
MANKATO        CLOUDY    15   8  73 E7        30.56S WCI   5
NEW ULM        FAIR      10   3  72 NE5       30.55F WCI   2
ST JAMES       MOCLDY    14   9  79 NE5       30.54F WCI   6
FAIRMONT       LGT SNOW  15  12  88 NE7       30.52S FOG     WCI   5
GLENCOE        FAIR      10   6  82 CALM      30.58R
FARIBAULT      CLOUDY    10   7  85 CALM      30.57R
OWATONNA       CLOUDY    16  10  79 E6        30.55R WCI   7
WASECA         CLOUDY    14  10  85 NE8       30.56S WCI   3
ALBERT LEA     CLOUDY    19  16  86 E7        30.51F WCI  10
$$
MNZ078>079-086>088-094>096-221300-
   Southeast Minnesota

CITY           SKY/WX    TMP DP  RH WIND       PRES   REMARKS
ROCHESTER      MOCLDY    17  13  84 E6        30.55F WCI   9
6HR MIN TEMP:  14; 6HR MAX TEMP:  17;

RED WING       MOCLDY     7   1  78 CALM      30.62S
STANTON        FAIR       8   4  84 E5        30.58F WCI   0
DODGE CENTER   FAIR      14   9  79 E5        30.54S WCI   6
WINONA         FAIR      18  12  79 CALM      30.61F
AUSTIN         CLOUDY    19  18  93 E7        30.53F WCI  10
PRESTON        LGT SNOW  18  14  87 NE3       30.56S
$$
ABBREVIATIONS USED IN REMARKS
   TC - TEMPERATURES IN CELSIUS
  WCI - WIND CHILL INDEX
   HX - HEAT INDEX
  VSB - VISIBILITY
$$




USA.gov is the U.S. government's official web portal to all federal, state and local government web resources and services.